Home > Weather > Simi Valley > Past weeks

Flag for USA Past Weather in Simi Valley, California, USA — Yesterday and Last 2 Weeks

Now
97 °F

Sunny.


Feels Like: 96 °F
Forecast: 63 / 94 °F
Wind: 7 mph from Southeast

Location: Van Nuys Airport

Current Time: Aug 29, 2016 at 4:44:40 PM

Latest Report: Aug 29, 2016 at 3:51 PM


Visibility: 10 mi

Pressure: 29.81 "Hg

Humidity: 27%

Dew Point: 58 °F

Location of Simi ValleyLocation

Past Weather in Simi Valley — Graph

°F

Simi Valley Temperature Yesterday

Maximum temperature yesterday: 93 °F (at 2:51 PM)
Minimum temperature yesterday: 63 °F (at 2:51 AM)
Average temperature yesterday: 77 °F

High & Low Weather Summary for the Past Weeks

 TemperatureHumidityPressure
High103 °F (Aug 15, 2:51 PM)93% (Aug 25, 11:51 PM)30.02 "Hg (Aug 25, 11:51 PM)
Low61 °F (Aug 27, 12:51 AM)3% (Aug 17, 2:51 PM)29.75 "Hg (Aug 16, 5:51 PM)
Average77 °F50%29.89 "Hg
* Reported Aug 14 2:51 PM — Aug 29 2:51 PM, Simi Valley, Weather by CustomWeather, © 2016

Note: Actual official high and low records may vary slightly from our data, if they occured in-between our weather recording intervals... More about our weather records

Advertising

Simi Valley Weather History for the Previous 24 Hours

Scroll right to see more
 ConditionsComfort  
Time TempWeatherWind HumidityBarometerVisibility
2:51 PM
Mon, Aug 29
96 °FSunny.8 mph29%29.84 "Hg10 mi
1:51 PM96 °FSunny.5 mph28%29.87 "Hg10 mi
12:51 PM93 °FSunny.No wind31%29.89 "Hg10 mi
11:51 AM88 °FSunny.No wind33%29.92 "Hg10 mi
10:51 AM84 °FSunny.3 mph38%29.93 "Hg10 mi
9:51 AM79 °FSunny.No wind48%29.95 "Hg10 mi
8:51 AM74 °FSunny.No wind60%29.96 "Hg10 mi
7:51 AM70 °FSunny.No wind71%29.95 "Hg10 mi
6:51 AM66 °FClear.No wind78%29.94 "Hg10 mi
5:51 AM66 °FClear.3 mph81%29.93 "Hg10 mi
4:51 AM67 °FClear.No wind79%29.93 "Hg10 mi
3:51 AM69 °FClear.No wind70%29.94 "Hg10 mi
2:51 AM69 °FClear.3 mph73%29.95 "Hg10 mi
1:51 AM69 °FClear.3 mph73%29.95 "Hg10 mi
12:51 AM70 °FClear.3 mph71%29.95 "Hg10 mi
11:51 PM
Sun, Aug 28
71 °FClear.5 mph68%29.95 "Hg10 mi
10:51 PM74 °FClear.5 mph64%29.95 "Hg10 mi
9:51 PM78 °FClear.No wind48%29.94 "Hg10 mi
8:51 PM80 °FClear.3 mph41%29.93 "Hg10 mi
7:51 PM83 °FSunny.5 mph33%29.91 "Hg10 mi
6:51 PM88 °FSunny.6 mph25%29.89 "Hg10 mi
5:51 PM92 °FSunny.6 mph18%29.88 "Hg10 mi
4:51 PM92 °FSunny.5 mph32%29.88 "Hg10 mi
Weather by CustomWeather, © 2016

See weather overviewHow to use our weather pages